| time (UTC) | temp C | wind direction | speed KPH | gust KPH | rain 1hr cm | rain 24hr cm | rain mn cm | humidity % | barometer mb |
| 20260505034532 | 7 | 58 | 9.7 | 14.5 | 0.00 | 0.00 | 0.00 | 41 | 1013.9 |
| 20260505033029 | 7 | 48 | 8.0 | 14.5 | 0.00 | 0.00 | 0.00 | 42 | 1014.0 |
| 20260505031537 | 7 | 51 | 8.0 | 14.5 | 0.00 | 0.00 | 0.00 | 40 | 1013.8 |
| 20260505030028 | 7 | 42 | 8.0 | 14.5 | 0.00 | 0.00 | 0.00 | 43 | 1013.9 |
| 20260505024528 | 8 | 33 | 3.2 | 9.7 | 0.00 | 0.00 | 0.00 | 40 | 1013.9 |
| 20260505023027 | 10 | 360 | 3.2 | 4.8 | 0.00 | 0.00 | 0.00 | 30 | 1013.9 |
| 20260505021528 | 10 | 360 | 4.8 | 6.4 | 0.00 | 0.00 | 0.00 | 33 | 1013.9 |
| 20260505020031 | 11 | 321 | 1.6 | 4.8 | 0.00 | 0.00 | 0.00 | 31 | 1013.8 |
| 20260505014534 | 11 | 321 | 1.6 | 4.8 | 0.00 | 0.00 | 0.00 | 31 | 1013.6 |
| 20260505013030 | 12 | 278 | 3.2 | 11.3 | 0.00 | 0.00 | 0.00 | 30 | 1013.9 |
| 20260505011530 | 12 | 255 | 6.4 | 12.9 | 0.00 | 0.00 | 0.00 | 29 | 1013.9 |
| 20260505010031 | 12 | 225 | 8.0 | 19.3 | 0.00 | 0.00 | 0.00 | 29 | 1014.0 |
| 20260505004533 | 12 | 270 | 8.0 | 14.5 | 0.00 | 0.00 | 0.00 | 30 | 1014.1 |
| 20260505003031 | 13 | 287 | 12.9 | 19.3 | 0.00 | 0.00 | 0.00 | 28 | 1014.1 |
| 20260505001529 | 13 | 292 | 12.9 | 20.9 | 0.00 | 0.00 | 0.00 | 27 | 1014.3 |
| 20260505000045 | 13 | 268 | 8.0 | 19.3 | 0.00 | 0.00 | 0.00 | 28 | 1014.3 |
| 20260504234533 | 13 | 275 | 16.1 | 22.5 | 0.00 | 0.00 | 0.00 | 27 | 1014.4 |
| 20260504233028 | 13 | 274 | 8.0 | 22.5 | 0.00 | 0.00 | 0.00 | 27 | 1014.7 |
| 20260504231532 | 14 | 294 | 9.7 | 22.5 | 0.00 | 0.00 | 0.00 | 25 | 1014.9 |
| 20260504230027 | 13 | 271 | 6.4 | 17.7 | 0.00 | 0.00 | 0.00 | 29 | 1014.8 |
| 20260504224528 | 14 | 233 | 11.3 | 24.1 | 0.00 | 0.00 | 0.00 | 32 | 1014.9 |
| 20260504223042 | 13 | 261 | 9.7 | 27.4 | 0.00 | 0.00 | 0.00 | 34 | 1014.9 |
| 20260504221531 | 13 | 255 | 16.1 | 32.2 | 0.00 | 0.00 | 0.00 | 32 | 1014.8 |
| 20260504220028 | 14 | 297 | 4.8 | 27.4 | 0.00 | 0.00 | 0.00 | 30 | 1015.0 |
| 20260504214531 | 15 | 253 | 19.3 | 30.6 | 0.00 | 0.00 | 0.00 | 27 | 1015.1 |
| 20260504213037 | 15 | 265 | 12.9 | 22.5 | 0.00 | 0.00 | 0.00 | 32 | 1015.1 |
| 20260504211532 | 14 | 202 | 9.7 | 24.1 | 0.00 | 0.00 | 0.00 | 31 | 1015.6 |
| 20260504210030 | 15 | 260 | 14.5 | 24.1 | 0.00 | 0.00 | 0.00 | 31 | 1015.6 |
| 20260504204541 | 14 | 236 | 14.5 | 24.1 | 0.00 | 0.00 | 0.00 | 35 | 1015.6 |
| 20260504203029 | 14 | 251 | 14.5 | 33.8 | 0.00 | 0.00 | 0.00 | 35 | 1015.9 |
| 20260504201529 | 13 | 244 | 19.3 | 29.0 | 0.00 | 0.00 | 0.00 | 38 | 1016.0 |
| 20260504200028 | 13 | 275 | 17.7 | 35.4 | 0.00 | 0.00 | 0.00 | 41 | 1016.1 |
| 20260504194526 | 13 | 218 | 16.1 | 29.0 | 0.00 | 0.00 | 0.00 | 42 | 1016.4 |
| 20260504193030 | 13 | 238 | 11.3 | 27.4 | 0.00 | 0.00 | 0.00 | 43 | 1016.4 |
| 20260504191530 | 13 | 218 | 8.0 | 25.7 | 0.00 | 0.00 | 0.00 | 43 | 1016.4 |
| 20260504190028 | 13 | 298 | 14.5 | 22.5 | 0.00 | 0.00 | 0.00 | 44 | 1016.4 |
| 20260504184526 | 12 | 263 | 14.5 | 27.4 | 0.00 | 0.00 | 0.00 | 47 | 1016.7 |
| 20260504183027 | 13 | 234 | 9.7 | 22.5 | 0.00 | 0.00 | 0.00 | 48 | 1016.9 |
| 20260504181531 | 12 | 240 | 8.0 | 22.5 | 0.00 | 0.00 | 0.00 | 47 | 1017.0 |
| 20260504180028 | 12 | 232 | 6.4 | 14.5 | 0.00 | 0.00 | 0.00 | 49 | 1017.3 |
| 20260504174528 | 12 | 234 | 11.3 | 20.9 | 0.00 | 0.00 | 0.00 | 51 | 1017.3 |
| 20260504173026 | 12 | 227 | 6.4 | 14.5 | 0.00 | 0.00 | 0.00 | 52 | 1017.3 |
| 20260504171530 | 12 | 275 | 8.0 | 17.7 | 0.00 | 0.00 | 0.00 | 51 | 1017.4 |
| 20260504081528 | 7 | 21 | 12.9 | 22.5 | 0.00 | 0.00 | 0.00 | 71 | 1017.6 |
| 20260504044541 | 11 | 360 | 16.1 | 32.2 | 0.00 | 0.00 | 0.00 | 48 | 1018.9 |
| 20260504043030 | 11 | 5 | 6.4 | 16.1 | 0.00 | 0.00 | 0.00 | 44 | 1019.2 |
| 20260504041530 | 12 | 337 | 12.9 | 33.8 | 0.00 | 0.00 | 0.00 | 42 | 1019.2 |
| 20260504040032 | 12 | 319 | 17.7 | 29.0 | 0.00 | 0.00 | 0.00 | 38 | 1018.6 |